Marrakech, Morocco

10:57 AM WEST on August 22, 2017 (GMT +0100)
Marrakech

Weather History for GMMX - January, 2014

Change the Weather History Date:

Wednesday, January 22, 2014

  Actual Average Record
Temperature  
Mean Temperature 50 °F -  
Max Temperature 55 °F 66 °F 77 °F (2001)
Min Temperature 44 °F 44 °F 33 °F (2009)
Degree Days  
Heating Degree Days 16    
Moisture  
Dew Point 48 °F    
Average Humidity 90    
Maximum Humidity 100    
Minimum Humidity 73    
Precipitation  
Precipitation 0.24 in 0.05 in - ()
Sea Level Pressure  
Sea Level Pressure 30.14 in    
Wind  
Wind Speed 3 mph ()    
Max Wind Speed 7 mph    
Max Gust Speed -    
Visibility 5.5 miles    
Events Rain    
Averages and records for this station are not official NWS values.
T = Trace of Precipitation, MM = Missing Value Source: Averaged Metar Reports

Daily Weather History Graph

Daily Weather History Graph

Search for Another Location

Airport or City:

Trip Planner

Search our weather history database for the weather conditions in past years. The results will help you decide how hot, cold, wet, or windy it might be!

Date:

Astronomy

Jan. 22, 2014 Rise Set
Actual Time 7:30 AM WET 5:57 PM WET
Civil Twilight 7:04 AM WET 6:23 PM WET
Nautical Twilight 6:34 AM WET 6:53 PM WET
Astronomical Twilight 6:05 AM WET 7:22 PM WET
Moon 11:49 PM WET 10:48 AM WET
Length of Visible Light 11h 19m
Length of Day
10h 27m
Waning Gibbous, 67% of the Moon is Illuminated
Jan 22
Waning Gibbous
Jan 24
Last Quarter
Jan 30
New
Feb 6
First Quarter
Feb 14
Full

Hourly Weather History & Observations

Time (WET) Temp. Windchill Dew Point Humidity Pressure Visibility Wind Dir Wind Speed Gust Speed Precip Events Conditions
12:00 AM 48 °F - 44 °F 81% 30.20 in 6 mi SE 2.3 mph - -  
12:00 AM 48.2 °F - 44.6 °F 87% 30.18 in - SSE 3.5 mph - N/A   Clear
12:30 AM 48.2 °F - 42.8 °F 82% 30.18 in - Calm Calm - N/A   Clear
1:00 AM 46.4 °F 45.2 °F 44.6 °F 93% 30.18 in - North 3.5 mph - N/A   Clear
1:30 AM 46.4 °F - 42.8 °F 87% 30.18 in 5.0 mi Calm Calm - N/A   Unknown
2:00 AM 48.2 °F - 44.6 °F 87% 30.15 in - SSE 3.5 mph - N/A   Clear
2:30 AM 48.2 °F - 44.6 °F 87% 30.15 in - South 4.6 mph - N/A   Clear
3:00 AM 47 °F - 43 °F 82% 30.19 in 6 mi SSE 1.2 mph - -  
3:00 AM 46.4 °F - 42.8 °F 87% 30.15 in - SSE 1.2 mph - N/A   Clear
3:30 AM 46.4 °F - 42.8 °F 87% 30.15 in - East 2.3 mph - N/A   Clear
4:00 AM 44.6 °F - 42.8 °F 93% 30.15 in 6.2 mi East 2.3 mph - N/A   Scattered Clouds
4:30 AM 44.6 °F 43.1 °F 44.6 °F 100% 30.15 in 6.2 mi SSE 3.5 mph - N/A   Scattered Clouds
5:00 AM 46.4 °F - 44.6 °F 93% 30.12 in 6.2 mi Variable 2.3 mph - N/A   Scattered Clouds
5:30 AM 46.4 °F 45.2 °F 44.6 °F 93% 30.12 in 6.2 mi SE 3.5 mph - N/A   Scattered Clouds
6:00 AM 46 °F - 44 °F 91% 30.17 in 6 mi NNE 3.5 mph - -   Mostly Cloudy
6:00 AM 46.4 °F 45.2 °F 44.6 °F 93% 30.12 in 6.2 mi NE 3.5 mph - N/A   Mostly Cloudy
6:30 AM 46.4 °F - 44.6 °F 93% 30.12 in 6.2 mi ENE 2.3 mph - N/A   Mostly Cloudy
7:00 AM 46.4 °F - 44.6 °F 93% 30.12 in 6.2 mi East 2.3 mph - N/A   Mostly Cloudy
7:30 AM 48.2 °F - 44.6 °F 87% 30.15 in 6.2 mi Variable 2.3 mph - N/A   Mostly Cloudy
8:00 AM 48.2 °F - 46.4 °F 93% 30.15 in 5.6 mi SE 2.3 mph - N/A   Mostly Cloudy
8:30 AM 48.2 °F - 46.4 °F 93% 30.15 in 5.6 mi SE 3.5 mph - N/A   Mostly Cloudy
9:00 AM 50 °F - 46 °F 80% 30.17 in 6 mi SSE 3.5 mph - -   Mostly Cloudy
9:00 AM 50.0 °F - 46.4 °F 87% 30.15 in 6.2 mi SSE 3.5 mph - N/A   Mostly Cloudy
9:30 AM 50.0 °F - 44.6 °F 82% 30.15 in 6.2 mi SW 5.8 mph - N/A   Mostly Cloudy
10:00 AM 51.8 °F - 46.4 °F 82% 30.15 in 6.2 mi WSW 4.6 mph - N/A   Mostly Cloudy
10:30 AM 51.8 °F - 46.4 °F 82% 30.15 in 6.2 mi WSW 4.6 mph - N/A   Mostly Cloudy
11:00 AM 53.6 °F - 48.2 °F 82% 30.15 in 6.2 mi West 4.6 mph - N/A   Mostly Cloudy
11:30 AM 53.6 °F - 48.2 °F 82% 30.15 in 6.2 mi WNW 4.6 mph - N/A   Mostly Cloudy
12:00 PM 54 °F - 48 °F 73% 30.16 in 6 mi WNW 3.5 mph - -   Partly Cloudy
12:00 PM 55.4 °F - 48.2 °F 77% 30.15 in 6.2 mi WNW 3.5 mph - N/A   Mostly Cloudy
12:30 PM 55.4 °F - 48.2 °F 77% 30.15 in 6.2 mi West 3.5 mph - N/A Rain Rain
1:00 PM 53.6 °F - 50.0 °F 88% 30.12 in 6.2 mi SSW 4.6 mph - N/A Rain Rain
1:30 PM 53.6 °F - 50.0 °F 88% 30.12 in 6.2 mi SW 4.6 mph - N/A Rain Light Rain
2:00 PM 55.4 °F - 50.0 °F 82% 30.12 in 6.2 mi SSW 6.9 mph - N/A   Mostly Cloudy
2:30 PM 55.4 °F - 50.0 °F 82% 30.09 in 5.0 mi SSW 5.8 mph - N/A Rain Rain
2:49 PM 55 °F - 52 °F 84% 30.10 in 5 mi SSW 4.6 mph - - Rain Rain
3:00 PM 55.4 °F - 51.8 °F 88% 30.09 in 5.0 mi SSW 4.6 mph - N/A Rain Rain
3:30 PM 55.4 °F - 51.8 °F 88% 30.09 in 5.0 mi WSW 3.5 mph - N/A Rain Rain
4:00 PM 55.4 °F - 51.8 °F 88% 30.09 in 5.0 mi SW 4.6 mph - N/A Rain Rain
5:00 PM 53.6 °F - 51.8 °F 94% 30.12 in 5.0 mi Variable 2.3 mph - N/A Rain Rain
5:30 PM 51.8 °F - 50.0 °F 94% 30.12 in 5.0 mi Variable 2.3 mph - N/A Rain Rain
5:48 PM 53 °F - 51 °F 90% 30.14 in 5 mi East 2.3 mph - - Rain Rain
6:00 PM 51.8 °F - 51.8 °F 100% 30.12 in 5.0 mi Variable 2.3 mph - N/A Rain Rain
6:30 PM 51.8 °F - 50.0 °F 94% 30.12 in 6.2 mi Calm Calm - N/A Rain Light Rain
7:00 PM 53.6 °F - 51.8 °F 94% 30.15 in 6.2 mi East 5.8 mph - N/A   Mostly Cloudy
7:30 PM 53.6 °F - 51.8 °F 94% 30.15 in 6.2 mi ESE 4.6 mph - N/A   Mostly Cloudy
8:00 PM 53.6 °F - 51.8 °F 94% 30.15 in 6.2 mi Calm Calm - N/A   Mostly Cloudy
8:30 PM 53.6 °F - 51.8 °F 94% 30.15 in 6.2 mi NNW 3.5 mph - N/A   Mostly Cloudy
9:00 PM 53 °F - 53 °F 98% 30.15 in 4 mi NNW 1.2 mph - -   Clear
9:00 PM 51.8 °F - 51.8 °F 100% 30.15 in 3.7 mi Variable 2.3 mph - N/A   Mostly Cloudy
9:30 PM 51.8 °F - 51.8 °F 100% 30.15 in 3.1 mi North 2.3 mph - N/A   Mostly Cloudy
10:19 PM 51.8 °F - 51.8 °F 100% 30.15 in 3.1 mi Calm Calm - N/A   Mostly Cloudy
10:30 PM 51.8 °F - 51.8 °F 100% 30.15 in 3.1 mi Calm Calm - N/A   Mostly Cloudy
11:00 PM 51.8 °F - 51.8 °F 100% 30.15 in - Calm Calm - N/A   Mostly Cloudy
11:30 PM 51.8 °F - 51.8 °F 100% 30.15 in - Calm Calm - N/A   Mostly Cloudy
11:46 PM 52 °F - 52 °F 99% 30.16 in 3 mi West 4.6 mph - -   Partly Cloudy